Location: ?????
(44.4284°N, 135.2222°E)
Time: 12:52:42
(UTC+00:00)

Cosmos 1980 Rocket - Pass Details

Date: 19 May 2025
Orbit: 829 x 847 km, 71.0° (Epoch: 19 June)

Event Time Altitude Azimuth Distance (km) Brightness Sun altitude
Rises 12:18:07 0° 339° (NNW) 3,381 6.8 -16.3°
Reaches altitude 10° 12:20:42 10° 347° (NNW) 2,445 5.6 -16.6°
Maximum altitude 12:25:59 41° 57° (ENE) 1,188 2.9 -17.2°
Enters shadow 12:28:50 24° 112° (ESE) 1,658 3.2 -17.5°
